KHALIFASAT (43676 NORAD) Tracking and Keplerian Element Data

This shows tracking and keplerian element data for the satellite.

Feedback or suggestion? Click here.




ElementValue
Catalog43676
NameKHALIFASAT
Epoch Orbit265
Epoch Day320.09685523
Epoch Year2018
RAAN70.4368
Inclination97.8319
Eccentricity0.001464
Argument of Perigee247.0975
Mean Anonmoly112.8684
Mean Motion14.88676462
Decay Rate4.11E-06
L11 43676U 18084F 18320.09685523 .00000411 00000-0 49942-4 0 9997
L22 43676 97.8319 70.4368 0014640 247.0975 112.8684 14.88676462 2657

Live tracking and technical data element details for KHALIFASAT (NORAD 43676). KHALIFASAT can be tracked NOW for your location showing map with azimuth and elevation plus other details from your city location.

Track the satellite on the map from your city or location and see movement details for azimuth, elevation, latitude, longitude, range, height, and movement on the map or in text.







IsCatalogInMostPopularTable: catalog: 43676, numindb: 5
Update: records affected: 1



GetName: 43676 KHALIFASAT

Hit Count: updated at: Sat, 17 Nov 2018 03:16:20 GMT